Location: Kitchener
(43.4500°N, 80.5000°W)
Time: 01:10:53
(UTC-04:00)

OTV 5 (USA 277) - Visible Passes

Search period start: 24 September 2018 00:00
Search period end: 04 October 2018 00:00
Orbit: 387 x 394 km, 54.5° (Epoch: 08 September)

Date Brightness Start Highest point End Pass type
(mag) Time Alt. Az. Time Alt. Az. Time Alt. Az.
25 Sep ? 06:36:49 10° S 06:39:24 23° SE 06:42:00 10° ENE visible
26 Sep ? 05:42:37 10° SE 05:43:19 11° SE 05:44:02 10° ESE visible
27 Sep ? 06:19:25 10° SSW 06:22:28 44° SE 06:25:33 10° ENE visible
28 Sep ? 05:25:17 17° SSE 05:26:18 20° SE 05:28:44 10° E visible
29 Sep ? 06:03:56 26° SW 06:05:37 88° SE 06:08:50 10° NE visible
30 Sep ? 05:10:04 32° ESE 05:10:04 32° ESE 05:12:20 10° ENE visible
30 Sep ? 06:42:31 10° W 06:45:19 27° NNW 06:48:09 10° NE visible
01 Oct ? 05:48:30 47° WNW 05:48:50 49° NNW 05:51:58 10° NE visible
02 Oct ? 04:54:26 21° ENE 04:54:26 21° ENE 04:55:40 10° NE visible
02 Oct ? 06:26:50 13° WNW 06:28:42 20° NNW 06:31:09 10° NNE visible
03 Oct ? 05:32:43 28° N 05:32:43 28° N 05:35:00 10° NE visible
